Tracking 25701 objects as of 3-Jul-2022
HD Live streaming from Space Station
objects crossing your sky now

FENGYUN 1C DEB

Track FENGYUN 1C DEB now!
10-day predictions


NORAD ID: 30515
Int'l Code: 1999-025AJD
Perigee: 666.0 km
Apogee: 1,449.4 km
Inclination: 98.5 °
Period: 106.2 minutes
Semi major axis: 7428 km
RCS: 0.0145 m2 (small)
Launch date: May 10, 1999
Source: People's Republic of China (PRC)
Launch site: Taiyaun Space Center, China (TSC)

Note: This is SATELLITE DEBRIS
aabbcc
Your satellite tracking list
Your tracking list is empty




NASA's NSSDC Master Catalog

Two Line Element Set (TLE):
1 30515U 99025AJD 22184.01774264  .00000490  00000-0  30366-3 0  9991
2 30515  98.4770 203.0253 0527319 146.4168 248.9472 13.55916283762737
Source of the keplerian elements: AFSPC